NACHOS-2 (52945 NORAD) Tracking and Keplerian Element Data

This shows tracking and keplerian element data for the satellite.

Feedback or suggestion? Click here.




ElementValue
Catalog52945
NameNACHOS-2
Epoch Orbit1317
Epoch Day269.6668231
Epoch Year2022
RAAN8.824
Inclination44.9979
Eccentricity0.0003162
Argument of Perigee349.648
Mean Anonmoly10.4345
Mean Motion15.24389228
Decay Rate8.21E-05
L11 52945U 22074B 22269.66682310 .00008210 00000+0 34009-3 0 9992
L22 52945 44.9979 8.8240 0003162 349.6480 10.4345 15.24389228 13170

Live tracking and technical data element details for NACHOS-2 (NORAD 52945). NACHOS-2 can be tracked NOW for your location showing map with azimuth and elevation plus other details from your city location.

Track the satellite on the map from your city or location and see movement details for azimuth, elevation, latitude, longitude, range, height, and movement on the map or in text.







IsCatalogInMostPopularTable: catalog: 52945, numindb: 9
Update: records affected: 1



GetName: 52945 NACHOS-2

Hit Count: updated at: Thu, 06 Oct 2022 05:17:43 GMT